Location: Bednik
(45.3500°N, 16.3833°E)
Time: 08:26:49
(UTC+00:00)

Cosmos 2123 Rocket - Pass Details

Date: 08 August 2020
Orbit: 962 x 991 km, 82.9° (Epoch: 26 September)

Event Time Altitude Azimuth Distance (km) Brightness Sun altitude
Rises 20:05:12 0° 350° (N) 3,666 8.0 -17.1°
Reaches altitude 10° 20:07:43 10° 350° (N) 2,718 7.2 -17.5°
Maximum altitude 20:13:56 81° 264° (W) 988 4.0 -18.2°
Enters shadow 20:18:16 21° 179° (S) 2,026 5.2 -18.7°
